Location: Ch�tillon
(48.8024°N, 2.2935°E)
Time: 10:53:53
(UTC+00:00)

CUTE 1.7 + AOD 2 - Visible Passes

Search period start: 25 June 2022 00:00
Search period end: 05 July 2022 00:00
Orbit: 591 x 607 km, 97.7° (Epoch: 24 June)

Date Brightness Start Highest point End Pass type
(mag) Time Alt. Az. Time Alt. Az. Time Alt. Az.
25 Jun ? 02:39:47 10° NE 02:42:23 16° E 02:44:57 10° SE visible
26 Jun ? 02:50:10 10° NE 02:53:18 20° E 02:56:24 10° SE visible
27 Jun ? 03:00:42 10° NE 03:04:13 25° E 03:07:42 10° SSE visible
03 Jul ? 02:31:06 10° ENE 02:33:02 13° E 02:34:56 10° ESE visible
04 Jul ? 02:41:16 10° NE 02:43:57 16° E 02:46:37 10° SE visible
